Year,Month,Day,Hour,Minute,Value (Times are PST for temperature in C)
2011,07,23,00,00,10.70
2011,07,23,00,01,10.70
2011,07,23,00,02,10.70
2011,07,23,00,03,10.70
2011,07,23,00,04,10.60
2011,07,23,00,05,10.60
2011,07,23,00,06,10.60
2011,07,23,00,07,10.60
2011,07,23,00,08,10.60
2011,07,23,00,09,10.60
2011,07,23,00,10,10.50
2011,07,23,00,11,10.50
2011,07,23,00,12,10.50
2011,07,23,00,13,10.50
2011,07,23,00,14,10.50
2011,07,23,00,15,10.50
2011,07,23,00,16,10.50
2011,07,23,00,17,10.50
2011,07,23,00,18,10.50
2011,07,23,00,19,10.50
2011,07,23,00,20,10.40
2011,07,23,00,21,10.40
2011,07,23,00,22,10.40
2011,07,23,00,23,10.40
2011,07,23,00,24,10.40
2011,07,23,00,25,10.40
2011,07,23,00,26,10.40
2011,07,23,00,27,10.40
2011,07,23,00,28,10.40
2011,07,23,00,29,10.40
2011,07,23,00,30,10.40
2011,07,23,00,31,10.40
2011,07,23,00,32,10.40
2011,07,23,00,33,10.40
2011,07,23,00,34,10.40
2011,07,23,00,35,10.40
2011,07,23,00,36,10.40
2011,07,23,00,37,10.30
2011,07,23,00,38,10.30
2011,07,23,00,39,10.30
2011,07,23,00,40,10.30
2011,07,23,00,41,10.30
2011,07,23,00,42,10.30
2011,07,23,00,43,10.30
2011,07,23,00,44,10.30
2011,07,23,00,45,10.30
2011,07,23,00,46,10.20
2011,07,23,00,47,10.20
2011,07,23,00,48,10.20
2011,07,23,00,49,10.20
2011,07,23,00,50,10.20
2011,07,23,00,51,10.20
2011,07,23,00,52,10.20
2011,07,23,00,53,10.20
2011,07,23,00,54,10.20
2011,07,23,00,55,10.10
2011,07,23,00,56,10.10
2011,07,23,00,57,10.10
2011,07,23,00,58,10.10
2011,07,23,00,59,10.10
2011,07,23,01,00,10.10
2011,07,23,01,01,10.10
2011,07,23,01,02,10.10
2011,07,23,01,03,10.00
2011,07,23,01,04,10.00
2011,07,23,01,05,10.00
2011,07,23,01,06,10.00
2011,07,23,01,07,9.90
2011,07,23,01,08,9.90
2011,07,23,01,09,9.90
2011,07,23,01,10,9.90
2011,07,23,01,11,9.90
2011,07,23,01,12,9.90
2011,07,23,01,13,9.80
2011,07,23,01,14,9.80
2011,07,23,01,15,9.80
2011,07,23,01,16,9.80
2011,07,23,01,17,9.80
2011,07,23,01,18,9.80
2011,07,23,01,19,9.70
2011,07,23,01,20,9.70
2011,07,23,01,21,9.70
2011,07,23,01,22,9.70
2011,07,23,01,23,9.70
2011,07,23,01,24,9.70
2011,07,23,01,25,9.70
2011,07,23,01,26,9.70
2011,07,23,01,27,9.60
2011,07,23,01,28,9.60
2011,07,23,01,29,9.60
2011,07,23,01,30,9.60
2011,07,23,01,31,9.60
2011,07,23,01,32,9.60
2011,07,23,01,33,9.60
2011,07,23,01,34,9.60
2011,07,23,01,35,9.60
2011,07,23,01,36,9.60
2011,07,23,01,37,9.60
2011,07,23,01,38,9.60
2011,07,23,01,39,9.60
2011,07,23,01,40,9.60
2011,07,23,01,41,9.60
2011,07,23,01,42,9.60
2011,07,23,01,43,9.60
2011,07,23,01,44,9.60
2011,07,23,01,45,9.60
2011,07,23,01,46,9.60
2011,07,23,01,47,9.70
2011,07,23,01,48,9.70
2011,07,23,01,49,9.70
2011,07,23,01,50,9.70
2011,07,23,01,51,9.70
2011,07,23,01,52,9.70
2011,07,23,01,53,9.70
2011,07,23,01,54,9.70
2011,07,23,01,55,9.70
2011,07,23,01,56,9.60
2011,07,23,01,57,9.60
2011,07,23,01,58,9.60
2011,07,23,01,59,9.60
2011,07,23,02,00,9.60
2011,07,23,02,01,9.60
2011,07,23,02,02,9.60
2011,07,23,02,03,9.60
2011,07,23,02,04,9.60
2011,07,23,02,05,9.60
2011,07,23,02,06,9.60
2011,07,23,02,07,9.60
2011,07,23,02,08,9.60
2011,07,23,02,09,9.60
2011,07,23,02,10,9.60
2011,07,23,02,11,9.60
2011,07,23,02,12,9.60
2011,07,23,02,13,9.60
2011,07,23,02,14,9.60
2011,07,23,02,15,9.60
2011,07,23,02,16,9.60
2011,07,23,02,17,9.60
2011,07,23,02,18,9.60
2011,07,23,02,19,9.60
2011,07,23,02,20,9.60
2011,07,23,02,21,9.60
2011,07,23,02,22,9.50
2011,07,23,02,23,9.50
2011,07,23,02,24,9.50
2011,07,23,02,25,9.50
2011,07,23,02,26,9.50
2011,07,23,02,27,9.50
2011,07,23,02,28,9.50
2011,07,23,02,29,9.50
2011,07,23,02,30,9.50
2011,07,23,02,31,9.50
2011,07,23,02,32,9.50
2011,07,23,02,33,9.40
2011,07,23,02,34,9.40
2011,07,23,02,35,9.40
2011,07,23,02,36,9.30
2011,07,23,02,37,9.30
2011,07,23,02,38,9.30
2011,07,23,02,39,9.30
2011,07,23,02,40,9.30
2011,07,23,02,41,9.30
2011,07,23,02,42,9.30
2011,07,23,02,43,9.30
2011,07,23,02,44,9.30
2011,07,23,02,45,9.30
2011,07,23,02,46,9.30
2011,07,23,02,47,9.40
2011,07,23,02,48,9.40
2011,07,23,02,49,9.40
2011,07,23,02,50,9.50
2011,07,23,02,51,9.50
2011,07,23,02,52,9.50
2011,07,23,02,53,9.50
2011,07,23,02,54,9.50
2011,07,23,02,55,9.40
2011,07,23,02,56,9.40
2011,07,23,02,57,9.40
2011,07,23,02,58,9.30
2011,07,23,02,59,9.30
2011,07,23,03,00,9.30
2011,07,23,03,01,9.30
2011,07,23,03,02,9.30
2011,07,23,03,03,9.30
2011,07,23,03,04,9.30
2011,07,23,03,05,9.20
2011,07,23,03,06,9.20
2011,07,23,03,07,9.20
2011,07,23,03,08,9.20
2011,07,23,03,09,9.20
2011,07,23,03,10,9.20
2011,07,23,03,11,9.20
2011,07,23,03,12,9.20
2011,07,23,03,13,9.20
2011,07,23,03,14,9.20
2011,07,23,03,15,9.20
2011,07,23,03,16,9.30
2011,07,23,03,17,9.30
2011,07,23,03,18,9.30
2011,07,23,03,19,9.30
2011,07,23,03,20,9.30
2011,07,23,03,21,9.40
2011,07,23,03,22,9.40
2011,07,23,03,23,9.40
2011,07,23,03,24,9.50
2011,07,23,03,25,9.50
2011,07,23,03,26,9.40
2011,07,23,03,27,9.40
2011,07,23,03,28,9.40
2011,07,23,03,29,9.30
2011,07,23,03,30,9.30
2011,07,23,03,31,9.30
2011,07,23,03,32,9.30
2011,07,23,03,33,9.30
2011,07,23,03,34,9.20
2011,07,23,03,35,9.20
2011,07,23,03,36,9.20
2011,07,23,03,37,9.20
2011,07,23,03,38,9.20
2011,07,23,03,39,9.20
2011,07,23,03,40,9.10
2011,07,23,03,41,9.10
2011,07,23,03,42,9.10
2011,07,23,03,43,9.10
2011,07,23,03,44,9.10
2011,07,23,03,45,9.10
2011,07,23,03,46,9.20
2011,07,23,03,47,9.20
2011,07,23,03,48,9.20
2011,07,23,03,49,9.20
2011,07,23,03,50,9.20
2011,07,23,03,51,9.20
2011,07,23,03,52,9.20
2011,07,23,03,53,9.20
2011,07,23,03,54,9.20
2011,07,23,03,55,9.20
2011,07,23,03,56,9.20
2011,07,23,03,57,9.20
2011,07,23,03,58,9.10
2011,07,23,03,59,9.10
2011,07,23,04,00,9.10
2011,07,23,04,01,9.10
2011,07,23,04,02,9.10
2011,07,23,04,03,9.10
2011,07,23,04,04,9.10
2011,07,23,04,05,9.20
2011,07,23,04,06,9.20
2011,07,23,04,07,9.20
2011,07,23,04,08,9.30
2011,07,23,04,09,9.30
2011,07,23,04,10,9.40
2011,07,23,04,11,9.40
2011,07,23,04,12,9.40
2011,07,23,04,13,9.50
2011,07,23,04,14,9.50
2011,07,23,04,15,9.60
2011,07,23,04,16,9.60
2011,07,23,04,17,9.70
2011,07,23,04,18,9.70
2011,07,23,04,19,9.70
2011,07,23,04,20,9.70
2011,07,23,04,21,9.60
2011,07,23,04,22,9.60
2011,07,23,04,23,9.50
2011,07,23,04,24,9.50
2011,07,23,04,25,9.40
2011,07,23,04,26,9.30
2011,07,23,04,27,9.30
2011,07,23,04,28,9.30
2011,07,23,04,29,9.30
2011,07,23,04,30,9.20
2011,07,23,04,31,9.20
2011,07,23,04,32,9.20
2011,07,23,04,33,9.20
2011,07,23,04,34,9.10
2011,07,23,04,35,9.10
2011,07,23,04,36,9.10
2011,07,23,04,37,9.10
2011,07,23,04,38,9.10
2011,07,23,04,39,9.10
2011,07,23,04,40,9.10
2011,07,23,04,41,9.10
2011,07,23,04,42,9.10
2011,07,23,04,43,9.10
2011,07,23,04,44,9.10
2011,07,23,04,45,9.10
2011,07,23,04,46,9.20
2011,07,23,04,47,9.20
2011,07,23,04,48,9.20
2011,07,23,04,49,9.20
2011,07,23,04,50,9.20
2011,07,23,04,51,9.20
2011,07,23,04,52,9.20
2011,07,23,04,53,9.30
2011,07,23,04,54,9.30
2011,07,23,04,55,9.30
2011,07,23,04,56,9.30
2011,07,23,04,57,9.30
2011,07,23,04,58,9.30
2011,07,23,04,59,9.30
2011,07,23,05,00,9.30
2011,07,23,05,01,9.20
2011,07,23,05,02,9.20
2011,07,23,05,03,9.20
2011,07,23,05,04,9.20
2011,07,23,05,05,9.20
2011,07,23,05,06,9.20
2011,07,23,05,07,9.20
2011,07,23,05,08,9.20
2011,07,23,05,09,9.20
2011,07,23,05,10,9.20
2011,07,23,05,11,9.20
2011,07,23,05,12,9.20
2011,07,23,05,13,9.20
2011,07,23,05,14,9.20
2011,07,23,05,15,9.20
2011,07,23,05,16,9.20
2011,07,23,05,17,9.20
2011,07,23,05,18,9.20
2011,07,23,05,19,9.20
2011,07,23,05,20,9.30
2011,07,23,05,21,9.30
2011,07,23,05,22,9.40
2011,07,23,05,23,9.40
2011,07,23,05,24,9.40
2011,07,23,05,25,9.40
2011,07,23,05,26,9.40
2011,07,23,05,27,9.40
2011,07,23,05,28,9.40
2011,07,23,05,29,9.40
2011,07,23,05,30,9.40
2011,07,23,05,31,9.40
2011,07,23,05,32,9.40
2011,07,23,05,33,9.40
2011,07,23,05,34,9.40
2011,07,23,05,35,9.40
2011,07,23,05,36,9.50
2011,07,23,05,37,9.60
2011,07,23,05,38,9.60
2011,07,23,05,39,9.70
2011,07,23,05,40,9.80
2011,07,23,05,41,9.80
2011,07,23,05,42,9.80
2011,07,23,05,43,9.90
2011,07,23,05,44,9.90
2011,07,23,05,45,9.90
2011,07,23,05,46,9.90
2011,07,23,05,47,10.00
2011,07,23,05,48,10.10
2011,07,23,05,49,10.10
2011,07,23,05,50,10.20
2011,07,23,05,51,10.20
2011,07,23,05,52,10.20
2011,07,23,05,53,10.20
2011,07,23,05,54,10.20
2011,07,23,05,55,10.20
2011,07,23,05,56,10.20
2011,07,23,05,57,10.20
2011,07,23,05,58,10.20
2011,07,23,05,59,10.20
2011,07,23,06,00,10.20
2011,07,23,06,01,10.20
2011,07,23,06,02,10.20
2011,07,23,06,03,10.20
2011,07,23,06,04,10.20
2011,07,23,06,05,10.20
2011,07,23,06,06,10.10
2011,07,23,06,07,10.10
2011,07,23,06,08,10.10
2011,07,23,06,09,10.10
2011,07,23,06,10,10.10
2011,07,23,06,11,10.10
2011,07,23,06,12,10.10
2011,07,23,06,13,10.20
2011,07,23,06,14,10.20
2011,07,23,06,15,10.20
2011,07,23,06,16,10.20
2011,07,23,06,17,10.20
2011,07,23,06,18,10.20
2011,07,23,06,19,10.20
2011,07,23,06,20,10.30
2011,07,23,06,21,10.30
2011,07,23,06,22,10.30
2011,07,23,06,23,10.30
2011,07,23,06,24,10.30
2011,07,23,06,25,10.30
2011,07,23,06,26,10.40
2011,07,23,06,27,10.40
2011,07,23,06,28,10.50
2011,07,23,06,29,10.50
2011,07,23,06,30,10.60
2011,07,23,06,31,10.60
2011,07,23,06,32,10.60
2011,07,23,06,33,10.60
2011,07,23,06,34,10.60
2011,07,23,06,35,10.70
2011,07,23,06,36,10.70
2011,07,23,06,37,10.70
2011,07,23,06,38,10.70
2011,07,23,06,39,10.80
2011,07,23,06,40,10.80
2011,07,23,06,41,10.90
2011,07,23,06,42,10.90
2011,07,23,06,43,10.90
2011,07,23,06,44,11.00
2011,07,23,06,45,11.00
2011,07,23,06,46,11.00
2011,07,23,06,47,11.10
2011,07,23,06,48,11.10
2011,07,23,06,49,11.10
2011,07,23,06,50,11.10
2011,07,23,06,51,11.20
2011,07,23,06,52,11.20
2011,07,23,06,53,11.30
2011,07,23,06,54,11.30
2011,07,23,06,55,11.40
2011,07,23,06,56,11.50
2011,07,23,06,57,11.50
2011,07,23,06,58,11.60
2011,07,23,06,59,11.60
2011,07,23,07,00,11.70
2011,07,23,07,01,11.80
2011,07,23,07,02,11.80
2011,07,23,07,03,11.80
2011,07,23,07,04,11.80
2011,07,23,07,05,11.90
2011,07,23,07,06,12.00
2011,07,23,07,07,12.10
2011,07,23,07,08,12.20
2011,07,23,07,09,12.30
2011,07,23,07,10,12.30
2011,07,23,07,11,12.40
2011,07,23,07,12,12.40
2011,07,23,07,13,12.50
2011,07,23,07,14,12.60
2011,07,23,07,15,12.60
2011,07,23,07,16,12.60
2011,07,23,07,17,12.70
2011,07,23,07,18,12.70
2011,07,23,07,19,12.80
2011,07,23,07,20,12.80
2011,07,23,07,21,12.80
2011,07,23,07,22,12.80
2011,07,23,07,23,12.90
2011,07,23,07,24,12.90
2011,07,23,07,25,12.90
2011,07,23,07,26,13.00
2011,07,23,07,27,13.00
2011,07,23,07,28,13.00
2011,07,23,07,29,13.10
2011,07,23,07,30,13.10
2011,07,23,07,31,13.10
2011,07,23,07,32,13.10
2011,07,23,07,33,13.20
2011,07,23,07,34,13.20
2011,07,23,07,35,13.20
2011,07,23,07,36,13.20
2011,07,23,07,37,13.10
2011,07,23,07,38,13.00
2011,07,23,07,39,12.90
2011,07,23,07,40,12.90
2011,07,23,07,41,12.80
2011,07,23,07,42,12.80
2011,07,23,07,43,12.80
2011,07,23,07,44,12.80
2011,07,23,07,45,12.80
2011,07,23,07,46,12.80
2011,07,23,07,47,12.90
2011,07,23,07,48,12.90
2011,07,23,07,49,13.00
2011,07,23,07,50,13.00
2011,07,23,07,51,13.10
2011,07,23,07,52,13.20
2011,07,23,07,53,13.20
2011,07,23,07,54,13.30
2011,07,23,07,55,13.30
2011,07,23,07,56,13.30
2011,07,23,07,57,13.40
2011,07,23,07,58,13.40
2011,07,23,07,59,13.50
2011,07,23,08,00,13.50
2011,07,23,08,01,13.60
2011,07,23,08,02,13.70
2011,07,23,08,03,13.80
2011,07,23,08,04,13.90
2011,07,23,08,05,13.90
2011,07,23,08,06,14.00
2011,07,23,08,07,14.10
2011,07,23,08,08,14.20
2011,07,23,08,09,14.20
2011,07,23,08,10,14.20
2011,07,23,08,11,14.30
2011,07,23,08,12,14.30
2011,07,23,08,13,14.40
2011,07,23,08,14,14.50
2011,07,23,08,15,14.60
2011,07,23,08,16,14.60
2011,07,23,08,17,14.70
2011,07,23,08,18,14.80
2011,07,23,08,19,15.00
2011,07,23,08,20,15.00
2011,07,23,08,21,15.00
2011,07,23,08,22,15.00
2011,07,23,08,23,15.00
2011,07,23,08,24,15.00
2011,07,23,08,25,15.00
2011,07,23,08,26,15.00
2011,07,23,08,27,15.00
2011,07,23,08,28,15.00
2011,07,23,08,29,15.00
2011,07,23,08,30,15.00
2011,07,23,08,31,15.00
2011,07,23,08,32,15.00
2011,07,23,08,33,15.00
2011,07,23,08,34,15.10
2011,07,23,08,35,15.20
2011,07,23,08,36,15.20
2011,07,23,08,37,15.30
2011,07,23,08,38,15.30
2011,07,23,08,39,15.30
2011,07,23,08,40,15.30
2011,07,23,08,41,15.30
2011,07,23,08,42,15.30
2011,07,23,08,43,15.30
2011,07,23,08,44,15.30
2011,07,23,08,45,15.30
2011,07,23,08,46,15.30
2011,07,23,08,47,15.40
2011,07,23,08,48,15.40
2011,07,23,08,49,15.40
2011,07,23,08,50,15.50
2011,07,23,08,51,15.50
2011,07,23,08,52,15.50
2011,07,23,08,53,15.50
2011,07,23,08,54,15.50
2011,07,23,08,55,15.50
2011,07,23,08,56,15.60
2011,07,23,08,57,15.60
2011,07,23,08,58,15.60
2011,07,23,08,59,15.60
2011,07,23,09,00,15.60
2011,07,23,09,01,15.60
2011,07,23,09,02,15.70
2011,07,23,09,03,15.70
2011,07,23,09,04,15.70
2011,07,23,09,05,15.70
2011,07,23,09,06,15.70
2011,07,23,09,07,15.70
2011,07,23,09,08,15.70
2011,07,23,09,09,15.70
2011,07,23,09,10,15.70
2011,07,23,09,11,15.70
2011,07,23,09,12,15.70
2011,07,23,09,13,15.70
2011,07,23,09,14,15.70
2011,07,23,09,15,15.70
2011,07,23,09,16,15.80
2011,07,23,09,17,15.70
2011,07,23,09,18,15.70
2011,07,23,09,19,15.70
2011,07,23,09,20,15.60
2011,07,23,09,21,15.60
2011,07,23,09,22,15.60
2011,07,23,09,23,15.70
2011,07,23,09,24,15.70
2011,07,23,09,25,15.80
2011,07,23,09,26,15.80
2011,07,23,09,27,15.80
2011,07,23,09,28,15.80
2011,07,23,09,29,15.80
2011,07,23,09,30,15.80
2011,07,23,09,31,15.90
2011,07,23,09,32,15.90
2011,07,23,09,33,16.00
2011,07,23,09,34,15.90
2011,07,23,09,35,15.90
2011,07,23,09,36,16.00
2011,07,23,09,37,16.00
2011,07,23,09,38,16.10
2011,07,23,09,39,16.20
2011,07,23,09,40,16.20
2011,07,23,09,41,16.20
2011,07,23,09,42,16.20
2011,07,23,09,43,16.30
2011,07,23,09,44,16.40
2011,07,23,09,45,16.50
2011,07,23,09,46,16.60
2011,07,23,09,47,16.60
2011,07,23,09,48,16.50
2011,07,23,09,49,16.40
2011,07,23,09,50,16.40
2011,07,23,09,51,16.40
2011,07,23,09,52,16.40
2011,07,23,09,53,16.40
2011,07,23,09,54,16.50
2011,07,23,09,55,16.50
2011,07,23,09,56,16.40
2011,07,23,09,57,16.40
2011,07,23,09,58,16.30
2011,07,23,09,59,16.30
2011,07,23,10,00,16.30
2011,07,23,10,01,16.30
2011,07,23,10,02,16.30
2011,07,23,10,03,16.30
2011,07,23,10,04,16.30
2011,07,23,10,05,16.30
2011,07,23,10,06,16.30
2011,07,23,10,07,16.20
2011,07,23,10,08,16.20
2011,07,23,10,09,16.20
2011,07,23,10,10,16.20
2011,07,23,10,11,16.20
2011,07,23,10,12,16.20
2011,07,23,10,13,16.20
2011,07,23,10,14,16.20
2011,07,23,10,15,16.10
2011,07,23,10,16,16.10
2011,07,23,10,17,16.10
2011,07,23,10,18,16.20
2011,07,23,10,19,16.30
2011,07,23,10,20,16.20
2011,07,23,10,21,16.20
2011,07,23,10,22,16.20
2011,07,23,10,23,16.10
2011,07,23,10,24,16.10
2011,07,23,10,25,16.10
2011,07,23,10,26,16.20
2011,07,23,10,27,16.30
2011,07,23,10,28,16.40
2011,07,23,10,29,16.50
2011,07,23,10,30,16.50
2011,07,23,10,31,16.60
2011,07,23,10,32,16.60
2011,07,23,10,33,16.70
2011,07,23,10,34,16.70
2011,07,23,10,35,16.80
2011,07,23,10,36,16.90
2011,07,23,10,37,17.00
2011,07,23,10,38,17.10
2011,07,23,10,39,17.10
2011,07,23,10,40,17.20
2011,07,23,10,41,17.30
2011,07,23,10,42,17.40
2011,07,23,10,43,17.40
2011,07,23,10,44,17.50
2011,07,23,10,45,17.50
2011,07,23,10,46,17.60
2011,07,23,10,47,17.70
2011,07,23,10,48,17.70
2011,07,23,10,49,17.70
2011,07,23,10,50,17.70
2011,07,23,10,51,17.70
2011,07,23,10,52,17.70
2011,07,23,10,53,17.70
2011,07,23,10,54,17.70
2011,07,23,10,55,17.80
2011,07,23,10,56,17.80
2011,07,23,10,57,17.80
2011,07,23,10,58,17.80
2011,07,23,10,59,17.80
2011,07,23,11,00,17.80
2011,07,23,11,01,17.70
2011,07,23,11,02,17.70
2011,07,23,11,03,17.60
2011,07,23,11,04,17.60
2011,07,23,11,05,17.60
2011,07,23,11,06,17.60
2011,07,23,11,07,17.60
2011,07,23,11,08,17.50
2011,07,23,11,09,17.50
2011,07,23,11,10,17.50
2011,07,23,11,11,17.50
2011,07,23,11,12,17.50
2011,07,23,11,13,17.50
2011,07,23,11,14,17.50
2011,07,23,11,15,17.50
2011,07,23,11,16,17.60
2011,07,23,11,17,17.60
2011,07,23,11,18,17.70
2011,07,23,11,19,17.70
2011,07,23,11,20,17.70
2011,07,23,11,21,17.80
2011,07,23,11,22,17.80
2011,07,23,11,23,17.80
2011,07,23,11,24,17.80
2011,07,23,11,25,17.80
2011,07,23,11,26,17.90
2011,07,23,11,27,17.90
2011,07,23,11,28,18.00
2011,07,23,11,29,18.10
2011,07,23,11,30,18.20
2011,07,23,11,31,18.30
2011,07,23,11,32,18.30
2011,07,23,11,33,18.30
2011,07,23,11,34,18.30
2011,07,23,11,35,18.30
2011,07,23,11,36,18.20
2011,07,23,11,37,18.20
2011,07,23,11,38,18.20
2011,07,23,11,39,18.20
2011,07,23,11,40,18.20
2011,07,23,11,41,18.20
2011,07,23,11,42,18.20
2011,07,23,11,43,18.20
2011,07,23,11,44,18.30
2011,07,23,11,45,18.30
2011,07,23,11,46,18.30
2011,07,23,11,47,18.40
2011,07,23,11,48,18.40
2011,07,23,11,49,18.50
2011,07,23,11,50,18.60
2011,07,23,11,51,18.70
2011,07,23,11,52,18.80
2011,07,23,11,53,18.80
2011,07,23,11,54,18.80
2011,07,23,11,55,18.90
2011,07,23,11,56,19.00
2011,07,23,11,57,19.00
2011,07,23,11,58,18.90
2011,07,23,11,59,18.80
2011,07,23,12,00,18.70
2011,07,23,12,01,18.70
2011,07,23,12,02,18.60
2011,07,23,12,03,18.70
2011,07,23,12,04,18.80
2011,07,23,12,05,19.00
2011,07,23,12,06,19.10
2011,07,23,12,07,19.20
2011,07,23,12,08,19.30
2011,07,23,12,09,19.40
2011,07,23,12,10,19.40
2011,07,23,12,11,19.40
2011,07,23,12,12,19.30
2011,07,23,12,13,19.40
2011,07,23,12,14,19.40
2011,07,23,12,15,19.50
2011,07,23,12,16,19.50
2011,07,23,12,17,19.50
2011,07,23,12,18,19.40
2011,07,23,12,19,19.20
2011,07,23,12,20,19.20
2011,07,23,12,21,19.20
2011,07,23,12,22,19.20
2011,07,23,12,23,19.30
2011,07,23,12,24,19.30
2011,07,23,12,25,19.40
2011,07,23,12,26,19.40
2011,07,23,12,27,19.50
2011,07,23,12,28,19.60
2011,07,23,12,29,19.50
2011,07,23,12,30,19.50
2011,07,23,12,31,19.50
2011,07,23,12,32,19.50
2011,07,23,12,33,19.60
2011,07,23,12,34,19.70
2011,07,23,12,35,19.60
2011,07,23,12,36,19.40
2011,07,23,12,37,19.40
2011,07,23,12,38,19.40
2011,07,23,12,39,19.50
2011,07,23,12,40,19.60
2011,07,23,12,41,19.70
2011,07,23,12,42,19.70
2011,07,23,12,43,19.70
2011,07,23,12,44,19.70
2011,07,23,12,45,19.70
2011,07,23,12,46,19.70
2011,07,23,12,47,19.70
2011,07,23,12,48,19.80
2011,07,23,12,49,19.80
2011,07,23,12,50,19.80
2011,07,23,12,51,19.80
2011,07,23,12,52,19.80
2011,07,23,12,53,19.70
2011,07,23,12,54,19.70
2011,07,23,12,55,19.70
2011,07,23,12,56,19.80
2011,07,23,12,57,19.90
2011,07,23,12,58,19.90
2011,07,23,12,59,20.00
2011,07,23,13,00,20.00
2011,07,23,13,01,20.00
2011,07,23,13,02,20.00
2011,07,23,13,03,20.00
2011,07,23,13,04,20.10
2011,07,23,13,05,20.10
2011,07,23,13,06,20.10
2011,07,23,13,07,20.10
2011,07,23,13,08,20.10
2011,07,23,13,09,20.00
2011,07,23,13,10,20.00
2011,07,23,13,11,20.00
2011,07,23,13,12,20.10
2011,07,23,13,13,20.20
2011,07,23,13,14,20.30
2011,07,23,13,15,20.40
2011,07,23,13,16,20.40
2011,07,23,13,17,20.40
2011,07,23,13,18,20.40
2011,07,23,13,19,20.30
2011,07,23,13,20,20.20
2011,07,23,13,21,20.20
2011,07,23,13,22,20.10
2011,07,23,13,23,20.10
2011,07,23,13,24,20.20
2011,07,23,13,25,20.30
2011,07,23,13,26,20.50
2011,07,23,13,27,20.60
2011,07,23,13,28,20.60
2011,07,23,13,29,20.60
2011,07,23,13,30,20.50
2011,07,23,13,31,20.40
2011,07,23,13,32,20.40
2011,07,23,13,33,20.20
2011,07,23,13,34,20.10
2011,07,23,13,35,20.00
2011,07,23,13,36,20.10
2011,07,23,13,37,20.20
2011,07,23,13,38,20.20
2011,07,23,13,39,20.30
2011,07,23,13,40,20.30
2011,07,23,13,41,20.30
2011,07,23,13,42,20.40
2011,07,23,13,43,20.40
2011,07,23,13,44,20.40
2011,07,23,13,45,20.40
2011,07,23,13,46,20.50
2011,07,23,13,47,20.50
2011,07,23,13,48,20.60
2011,07,23,13,49,20.60
2011,07,23,13,50,20.70
2011,07,23,13,51,20.80
2011,07,23,13,52,20.90
2011,07,23,13,53,20.90
2011,07,23,13,54,21.00
2011,07,23,13,55,21.00
2011,07,23,13,56,21.10
2011,07,23,13,57,21.10
2011,07,23,13,58,21.00
2011,07,23,13,59,21.00
2011,07,23,14,00,20.90
2011,07,23,14,01,20.80
2011,07,23,14,02,20.70
2011,07,23,14,03,20.70
2011,07,23,14,04,20.70
2011,07,23,14,05,20.70
2011,07,23,14,06,20.80
2011,07,23,14,07,20.80
2011,07,23,14,08,20.90
2011,07,23,14,09,21.10
2011,07,23,14,10,21.20
2011,07,23,14,11,21.20
2011,07,23,14,12,21.20
2011,07,23,14,13,21.20
2011,07,23,14,14,21.10
2011,07,23,14,15,21.10
2011,07,23,14,16,21.10
2011,07,23,14,17,21.10
2011,07,23,14,18,21.10
2011,07,23,14,19,21.10
2011,07,23,14,20,21.10
2011,07,23,14,21,21.10
2011,07,23,14,22,21.10
2011,07,23,14,23,21.20
2011,07,23,14,24,21.20
2011,07,23,14,25,21.30
2011,07,23,14,26,21.30
2011,07,23,14,27,21.40
2011,07,23,14,28,21.40
2011,07,23,14,29,21.40
2011,07,23,14,30,21.30
2011,07,23,14,31,21.20
2011,07,23,14,32,21.20
2011,07,23,14,33,21.20
2011,07,23,14,34,21.30
2011,07,23,14,35,21.30
2011,07,23,14,36,21.40
2011,07,23,14,37,21.40
2011,07,23,14,38,21.30
2011,07,23,14,39,21.30
2011,07,23,14,40,21.40
2011,07,23,14,41,21.40
2011,07,23,14,42,21.50
2011,07,23,14,43,21.50
2011,07,23,14,44,21.60
2011,07,23,14,45,21.60
2011,07,23,14,46,21.50
2011,07,23,14,47,21.40
2011,07,23,14,48,21.40
2011,07,23,14,49,21.40
2011,07,23,14,50,21.50
2011,07,23,14,51,21.60
2011,07,23,14,52,21.60
2011,07,23,14,53,21.70
2011,07,23,14,54,21.70
2011,07,23,14,55,21.70
2011,07,23,14,56,21.80
2011,07,23,14,57,21.80
2011,07,23,14,58,21.90
2011,07,23,14,59,21.90
2011,07,23,15,00,22.00
2011,07,23,15,01,22.00
2011,07,23,15,02,22.00
2011,07,23,15,03,21.90
2011,07,23,15,04,21.80
2011,07,23,15,05,21.70
2011,07,23,15,06,21.60
2011,07,23,15,07,21.60
2011,07,23,15,08,21.50
2011,07,23,15,09,21.40
2011,07,23,15,10,21.40
2011,07,23,15,11,21.40
2011,07,23,15,12,21.40
2011,07,23,15,13,21.40
2011,07,23,15,14,21.30
2011,07,23,15,15,21.20
2011,07,23,15,16,21.20
2011,07,23,15,17,21.20
2011,07,23,15,18,21.30
2011,07,23,15,19,21.40
2011,07,23,15,20,21.50
2011,07,23,15,21,21.60
2011,07,23,15,22,21.60
2011,07,23,15,23,21.70
2011,07,23,15,24,21.60
2011,07,23,15,25,21.60
2011,07,23,15,26,21.60
2011,07,23,15,27,21.60
2011,07,23,15,28,21.60
2011,07,23,15,29,21.60
2011,07,23,15,30,21.60
2011,07,23,15,31,21.60
2011,07,23,15,32,21.60
2011,07,23,15,33,21.60
2011,07,23,15,34,21.50
2011,07,23,15,35,21.40
2011,07,23,15,36,21.40
2011,07,23,15,37,21.30
2011,07,23,15,38,21.30
2011,07,23,15,39,21.30
2011,07,23,15,40,21.40
2011,07,23,15,41,21.40
2011,07,23,15,42,21.30
2011,07,23,15,43,21.30
2011,07,23,15,44,21.30
2011,07,23,15,45,21.30
2011,07,23,15,46,21.40
2011,07,23,15,47,21.40
2011,07,23,15,48,21.40
2011,07,23,15,49,21.40
2011,07,23,15,50,21.40
2011,07,23,15,51,21.50
2011,07,23,15,52,21.60
2011,07,23,15,53,21.70
2011,07,23,15,54,21.80
2011,07,23,15,55,21.90
2011,07,23,15,56,22.00
2011,07,23,15,57,22.00
2011,07,23,15,58,22.00
2011,07,23,15,59,21.90
2011,07,23,16,00,21.90
2011,07,23,16,01,21.80
2011,07,23,16,02,21.80
2011,07,23,16,03,21.80
2011,07,23,16,04,21.80
2011,07,23,16,05,21.90
2011,07,23,16,06,21.90
2011,07,23,16,07,22.00
2011,07,23,16,08,22.00
2011,07,23,16,09,22.00
2011,07,23,16,10,22.00
2011,07,23,16,11,22.00
2011,07,23,16,12,22.00
2011,07,23,16,13,22.00
2011,07,23,16,14,22.00
2011,07,23,16,15,21.90
2011,07,23,16,16,21.90
2011,07,23,16,17,21.90
2011,07,23,16,18,21.90
2011,07,23,16,19,21.80
2011,07,23,16,20,21.80
2011,07,23,16,21,21.80
2011,07,23,16,22,21.80
2011,07,23,16,23,21.90
2011,07,23,16,24,21.90
2011,07,23,16,25,21.90
2011,07,23,16,26,21.90
2011,07,23,16,27,22.00
2011,07,23,16,28,22.00
2011,07,23,16,29,22.10
2011,07,23,16,30,22.10
2011,07,23,16,31,22.10
2011,07,23,16,32,22.10
2011,07,23,16,33,22.20
2011,07,23,16,34,22.20
2011,07,23,16,35,22.10
2011,07,23,16,36,22.20
2011,07,23,16,37,22.20
2011,07,23,16,38,22.20
2011,07,23,16,39,22.40
2011,07,23,16,40,22.50
2011,07,23,16,41,22.50
2011,07,23,16,42,22.50
2011,07,23,16,43,22.50
2011,07,23,16,44,22.60
2011,07,23,16,45,22.60
2011,07,23,16,46,22.70
2011,07,23,16,47,22.80
2011,07,23,16,48,22.80
2011,07,23,16,49,22.80
2011,07,23,16,50,22.80
2011,07,23,16,51,22.80
2011,07,23,16,52,22.80
2011,07,23,16,53,22.70
2011,07,23,16,54,22.70
2011,07,23,16,55,22.70
2011,07,23,16,56,22.60
2011,07,23,16,57,22.40
2011,07,23,16,58,22.50
2011,07,23,16,59,22.50
2011,07,23,17,00,22.60
2011,07,23,17,01,22.80
2011,07,23,17,02,23.00
2011,07,23,17,03,23.10
2011,07,23,17,04,23.30
2011,07,23,17,05,23.50
2011,07,23,17,06,23.70
2011,07,23,17,07,23.70
2011,07,23,17,08,23.80
2011,07,23,17,09,23.90
2011,07,23,17,10,23.90
2011,07,23,17,11,24.00
2011,07,23,17,12,24.10
2011,07,23,17,13,24.10
2011,07,23,17,14,24.00
2011,07,23,17,15,24.00
2011,07,23,17,16,24.00
2011,07,23,17,17,24.10
2011,07,23,17,18,24.30
2011,07,23,17,19,24.30
2011,07,23,17,20,24.30
2011,07,23,17,21,24.30
2011,07,23,17,22,24.30
2011,07,23,17,23,24.30
2011,07,23,17,24,24.40
2011,07,23,17,25,24.40
2011,07,23,17,26,24.50
2011,07,23,17,27,24.50
2011,07,23,17,28,24.50
2011,07,23,17,29,24.60
2011,07,23,17,30,24.60
2011,07,23,17,31,24.50